Home > Weather > Bradenton > Past weeks

Flag for USA Past Weather in Bradenton, Florida, USA — Yesterday and Last 2 Weeks

Now
87 °F

Scattered clouds.


Feels Like: 95 °F
Forecast: 78 / 91 °F
Wind: 13 mph from East

Location: Sarasota-Bradenton International Airport

Current Time: Aug 24, 2016 at 7:33:32 PM

Latest Report: Aug 24, 2016 at 6:53 PM


Visibility: 10 mi

Pressure: 30.05 "Hg

Humidity: 65%

Dew Point: 74 °F

Location of BradentonLocation

Past Weather in Bradenton — Graph

°F

Bradenton Temperature Yesterday

Maximum temperature yesterday: 97 °F (at 1:53 PM)
Minimum temperature yesterday: 81 °F (at 4:53 AM)
Average temperature yesterday: 87 °F

High & Low Weather Summary for the Past Weeks

 TemperatureHumidityPressure
High97 °F (Aug 23, 1:53 PM)90% (Aug 10, 6:53 AM)30.15 "Hg (Aug 10, 6:53 AM)
Low76 °F (Aug 12, 5:53 AM)46% (Aug 23, 1:53 PM)29.93 "Hg (Aug 20, 5:53 PM)
Average84 °F73%30.05 "Hg
* Reported Aug 9 5:53 PM — Aug 24 5:53 PM, Bradenton, Weather by CustomWeather, © 2016

Note: Actual official high and low records may vary slightly from our data, if they occured in-between our weather recording intervals... More about our weather records

Advertising

Bradenton Weather History for the Previous 24 Hours

Scroll right to see more
 ConditionsComfort  
Time TempWeatherWind HumidityBarometerVisibility
5:53 PM
Wed, Aug 24
88 °FSunny.13 mph57%30.03 "Hg10 mi
4:53 PM90 °FSunny.16 mph59%30.01 "Hg10 mi
3:53 PM89 °FSunny.15 mph63%30.03 "Hg10 mi
2:53 PM92 °FSunny.10 mph58%30.04 "Hg10 mi
1:53 PM93 °FBroken clouds.10 mph54%30.06 "Hg10 mi
12:53 PM91 °FPassing clouds.9 mph57%30.08 "Hg10 mi
11:53 AM91 °FPassing clouds.10 mph60%30.09 "Hg10 mi
10:53 AM90 °FScattered clouds.8 mph63%30.09 "Hg10 mi
9:53 AM88 °FSunny.8 mph70%30.09 "Hg10 mi
8:53 AM84 °FSunny.7 mph80%30.10 "Hg10 mi
7:53 AM81 °FClear.6 mph88%30.09 "Hg10 mi
6:53 AM80 °FClear.5 mph87%30.09 "Hg10 mi
5:53 AM80 °FClear.3 mph85%30.07 "Hg10 mi
4:53 AM80 °FClear.3 mph85%30.06 "Hg10 mi
3:53 AM80 °FClear.5 mph85%30.07 "Hg10 mi
2:53 AM80 °FClear.6 mph81%30.08 "Hg10 mi
1:53 AM80 °FClear.6 mph81%30.09 "Hg10 mi
12:53 AM81 °FClear.6 mph79%30.10 "Hg10 mi
11:53 PM
Tue, Aug 23
82 °FClear.7 mph77%30.09 "Hg10 mi
10:53 PM82 °FClear.6 mph77%30.09 "Hg10 mi
9:53 PM83 °FClear.7 mph74%30.09 "Hg10 mi
8:53 PM82 °FMostly cloudy.3 mph74%30.10 "Hg10 mi
7:53 PM82 °FPassing clouds.No wind77%30.08 "Hg10 mi
Weather by CustomWeather, © 2016

See weather overviewHow to use our weather pages